AirNav   Everest Fuels
 
 761 users online  

U99 Laidlaw Corrals Airport
Kimama, Idaho, USA

GOING TO KIMAMA?


FAA INFORMATION EFFECTIVE 20 JUNE 2019

Location

FAA Identifier: U99
Lat/Long: 43-02-13.3000N / 113-44-01.0000W
43-02.221667N / 113-44.016667W
43.0370278 / -113.7336111
(estimated)
Elevation: 4448 ft. / 1356 m (estimated)
Variation: 16E (1985)
From city: 12 miles N of KIMAMA, ID
Time zone: UTC -6 (UTC -7 during Standard Time)
Zip code: 83349

Airport Operations

Airport use: Open to the public
Activation date: 06/1951
Control tower: no
ARTCC: SALT LAKE CITY CENTER
FSS: BOISE FLIGHT SERVICE STATION
NOTAMs facility: BOI (NOTAM-D service available)
Attendance: UNATNDD
Wind indicator: yes
Segmented circle: yes

Airport Communications

CTAF: 122.9

Nearby radio navigation aids

VOR radial/distance  VOR name  Freq  Var
BYIr354/28.0BURLEY VOR/DME114.1018E

 
NDB name  Hdg/Dist  Freq  Var  ID
HAILEY115/28.422013EHLE .... .-.. .

Airport Services

Airframe service: NONE
Powerplant service: NONE
Bottled oxygen: NONE
Bulk oxygen: NONE

Runway Information

Runway 7/25

Dimensions: 2250 x 130 ft. / 686 x 40 m
Surface: turf, in poor condition
SURFACE SUBJECT TO ONGOING DAMAGE BY RODENTS, GROUND VEHICLES AND LIVESTOCK
Runway edge markings: 07/25 EDGES & THRS MARKED WITH WHITE ROCKS.
Gradient: W
RUNWAY 7  RUNWAY 25
Latitude: 43-02.224833N43-02.217167N
Longitude: 113-44.269833W113-43.764833W
Elevation: 4448.0 ft.4427.0 ft.
Traffic pattern: leftleft
Obstructions: 16 ft. hill, 600 ft. from runway, 100 ft. right of centerline, 37:1 slope to clear15 ft. road, 80 ft. right of centerline
+15 FT ROAD 30-50 FT L.

Airport Ownership and Management from official FAA records

Ownership: Publicly-owned
Owner: STATE OF ID, ITD DIV OF AERO
P.O. BOX 7129
BOISE, ID 83707-1129
Phone 208-334-8775
Manager: DIV ADMIN
P.O. BOX 7129
BOISE, ID 83707-1129
Phone 208-334-8775

Airport Operational Statistics

Aircraft operations: 100/year *
100% transient general aviation
* for 12-month period ending 02 June 2016

Additional Remarks

NO WINTER MAINTENANCE.
FOR CD CTC SALT LAKE ARTCC AT 801-320-2568.

Instrument Procedures

There are no published instrument procedures at U99.

Some nearby airports with instrument procedures:

KBYI - Burley Municipal Airport (30 nm S)
KJER - Jerome County Airport (37 nm SW)
KSUN - Friedman Memorial Airport (37 nm NW)
KAOC - Arco-Butte County Airport (38 nm NE)
KGNG - Gooding Municipal Airport (46 nm W)
 
Loc | Ops | Rwys | IFR | FBO | Links
Com | Nav | Svcs | Stats | Notes
Area around U99 (Laidlaw Corrals Airport)
 
Road maps at: MapQuest Bing Google
 
Aerial photo
WARNING: Photo may not be current or correct
Aerial photo of U99 (Laidlaw Corrals Airport)
Photo by Winston Ellis
Photo taken 23-Oct-2016
looking east.

Do you have a better or more recent aerial photo of Laidlaw Corrals Airport that you would like to share? If so, please send us your photo.

 
Sectional chart

 
Airport distance calculator
Flying to Laidlaw Corrals Airport? Find the distance to fly.

From to U99

Sunrise and sunset
Times for 20-Jun-2019
 Local
(UTC-6)
 Zulu
(UTC)
Morning civil twilight05:2111:21
Sunrise05:5611:56
Sunset21:1603:16
Evening civil twilight21:5203:52

Current date and time
Zulu (UTC)  20-Jun-2019 11:59:27
Local (UTC-6)  20-Jun-2019 05:59:27
 
METAR
KBYI 
29nm S 
201153Z AUTO 26009KT 10SM CLR 11/M02 A2989 RMK AO2 SLP089 T01061022 10122 20083 55000
KSUN 
37nm NW 
201135Z AUTO 32008KT 10SM CLR 03/M01 A2990 RMK AO2
KJER 
37nm SW 
201153Z AUTO 28009KT 10SM CLR 09/M01 A2990 RMK AO2 SLP098 T00941006 10150 20089 53000
KTWF 
47nm SW 
201153Z 22013KT 10SM CLR 07/M02 A2991 RMK AO2 SLP086 T00721022 10133 20067 58001
TAF
KBYI 
29nm S 
200520Z 2006/2106 21008KT P6SM SKC FM201200 25010KT P6SM FEW200 FM201400 27020G30KT P6SM SCT160 FM202100 29025G35KT P6SM FEW060 FM210000 29030G40KT P6SM FEW050 FM210300 28015G25KT P6SM SKC
NOTAMs
Click for the latest NOTAMs
NOTAMs are issued by the DoD/FAA and will open in a separate window not controlled by AirNav.

 

 
 

Would you like to see your business listed on this page?

 If your business provides an interesting product or service to pilots, flight crews, aircraft, or users of the Laidlaw Corrals Airport, you should consider listing it here.  To start the listing process, click on the button below
 
Add a business
 

Other Pages about Laidlaw Corrals Airport

Update a link
 
Copyright © AirNav, LLC. All rights reserved. Privacy Policy  Contact